Simultaneous Nadir Overpasses (SNOs) Predictions

Prediction of SNOs between AQUA and METOP-B Satellite Orbit:

Table of predicted SNOs for the next 14.0 days since TLE Epoch: 9/28/2013
Index Date (AQUA) Time (AQUA) Lat,Lon (AQUA) SZA (AQUA ) Date (METOP-B) Time (METOP-B) Lat,Lon (METOP-B) SZA (METOP-B ) Distance(km) Time Diff (sec)
1 09/29/2013 12:50:16 73.44, -17.54 75.96 09/29/2013 12:49:05 73.42, -18.63 75.96 34.90 71
2 09/29/2013 13:39:47 -73.73, 149.50 103.74 09/29/2013 13:39:40 -73.72, 149.40 103.73 3.15 7
3 09/29/2013 14:29:16 73.80, -43.04 76.36 09/29/2013 14:30:19 73.80, -43.10 76.35 2.24 63
4 10/02/2013 08:24:35 73.66, 48.43 77.28 10/02/2013 08:23:22 73.65, 48.30 77.27 4.59 73
5 10/02/2013 09:14:02 -73.73,-144.08 102.64 10/02/2013 09:14:01 -73.75,-144.12 102.62 2.68 1
6 10/02/2013 10:03:31 73.82, 23.38 77.46 10/02/2013 10:04:40 73.82, 23.38 77.47 0.98 69
7 10/05/2013 03:58:49 73.70, 114.79 78.40 10/05/2013 03:57:41 73.72, 114.88 78.42 3.46 68
8 10/05/2013 04:48:16 -73.77, -77.71 101.52 10/05/2013 04:48:21 -73.78, -77.66 101.51 1.84 5
9 10/05/2013 05:37:46 73.91, 89.62 78.64 10/05/2013 05:38:58 73.95, 90.08 78.67 14.88 72
10 10/07/2013 23:33:03 73.71,-178.79 79.49 10/07/2013 23:32:03 73.69,-178.79 79.47 2.95 60
11 10/08/2013 00:22:30 -73.78, -11.29 100.43 10/08/2013 00:22:42 -73.79, -11.21 100.42 3.19 12
12 10/08/2013 01:12:05 74.18, 155.44 80.00 10/08/2013 01:13:14 74.21, 157.14 80.01 51.72 69
13 10/10/2013 19:07:16 73.70,-112.33 80.55 10/10/2013 19:06:24 73.70,-112.35 80.55 0.75 52
14 10/10/2013 19:56:43 -73.77, 55.18 99.38 10/10/2013 19:57:04 -73.76, 55.12 99.39 2.07 21




NCC Satellite Simultaneous Nadir Overpasses (SNOs) Prediction Service
